154P/Brewington (2003)

Japanese version
Home page
Updated on May 10, 2003

---------------------------------------------------------------------

* Profile

Designation 154P/2002 Q4
Recovery Date August 26, 2002
Magnitude 16.8 mag
Discoverer F. Artigue, H. Cucurullo, G. Trancredi (BUSCA project)

* Orbital Elements

Epoch 2003 Feb. 10.0 TT = JDT 2452680.5
T 2003 Feb. 19.36898 TT                                 MPC
q   1.5903470            (2000.0)            P               Q
n   0.09246178     Peri.   48.00610     +0.84095704     -0.53401333
a   4.8435215      Node   343.64406     +0.35754982     +0.66950315
e   0.6716548      Incl.   18.05953     +0.40613962     +0.51632868
P  10.66

* Finding Charts

* Magnitudes Graph

        m1 = 11.6 + 5 log d + 10.7 log r  [    ,-100]  (             - 2002 Nov. 11)
        m1 =  0.0 + 5 log d + 50   log r  [-100, 100]  (2002 Nov. 11 - 2003 May  30)
        m1 = 11.6 + 5 log d + 10.7 log r  [ 100,    ]  (2003 May  30 -             )

        * Gray curve is:  m1 = 11.6 + 5 log d + 10.7 log r

---------------------------------------------------------------------

The orbital elements are published on M.P.E.C. 2002-Q41.
The charts are made with StellaNavigator Ver.2.0 for Windows (AstroArts / ASCII).
The magnitudes graphs are made with Comet for Windows.

---------------------------------------------------------------------

Copyright(C) Seiichi Yoshida (comet@aerith.net). All rights reserved.